Regional Weather Roundup
Issued by NWS Huntsville, AL

Home | Current Version | Previous Version | Text Only | Print | Product List | Glossary On
Versions: 1 2 3 4 5 6 7 8 9 10 11 12 13 14 15 16 17 18 19 20 21 22 23 24 25 26 27 28 29 30 31 32 33 34 35 36 37 38 39 40 41 42 43 44 45 46 47 48 49 50
000
ASUS44 KHUN 221210
RWRHUN

WEATHER ROUNDUP FOR THE TENNESSEE VALLEY
NATIONAL WEATHER SERVICE HUNTSVILLE AL
600 AM CST MON DEC 22 2014

ALZ001>004-221300-
NORTHWEST ALABAMA

CITY           SKY/WX    TMP DP  RH WIND       PRES   REMARKS
COURTLAND HCN    N/A     48 N/A N/A SE5         N/A
RUSSELLVILLE     N/A     50 N/A N/A MISG        N/A
SHOALS AIRPORT CLOUDY    49  47  93 E12       29.94S FOG
6HR MIN TEMP:  46; 6HR MAX TEMP:  50;

SHOALS TVA RES   N/A     48 N/A N/A MISG        N/A
$$

ALZ005>007-016-221300-
NORTH CENTRAL ALABAMA

CITY           SKY/WX    TMP DP  RH WIND       PRES   REMARKS
CULLMAN AG STN   N/A     46 N/A N/A SE3         N/A
DECATUR AP     CLOUDY    48  46  93 SE7       29.96F FOG
6HR MIN TEMP:  48; 6HR MAX TEMP:  50;

HUNTSVILLE AP  DRIZZLE   50  46  86 E7        29.96S FOG
6HR MIN TEMP:  50; 6HR MAX TEMP:  51; 6HR PCP: TRACE;

HUN NWS/UAH      N/A     48  44  87 SE6         N/A
MERIDIANVILLE  CLOUDY    46  41  81 SE8       29.98R
REDSTONE ARSN  CLOUDY    48  46  93 SE5       29.95F
VINEMONT AP    CLOUDY    46  46  97 SE6       29.98R FOG
$$

ALZ008>010-221300-
NORTHEAST ALABAMA

CITY           SKY/WX    TMP DP  RH WIND       PRES   REMARKS
ALBERTVILLE    CLOUDY    45  45 100 SE8       29.97R FOG
FORT PAYNE     CLOUDY    45  41  87 E6        29.99S HAZE
SCOTTSBORO AP  CLOUDY    48  45  87 S3        30.00R
VALLEY HEAD      N/A     46 N/A N/A MISG        N/A
$$

TNZ076-096-097-221300-
SOUTHEASTERN MIDDLE TENNESSEE

CITY           SKY/WX    TMP DP  RH WIND       PRES   REMARKS
TULLAHOMA      CLOUDY    46  43  87 SE3       29.97R
WINCHESTER     CLOUDY    46  43  87 SE8       29.96F
$$

...SURROUNDING SITES...

CITY           SKY/WX    TMP DP  RH WIND       PRES   REMARKS
ATLANTA        DRZL/FOG  45  43  93 E9        30.03R VSB 1/2
ANNISTON       CLOUDY    49  46  90 E7        29.99F
BIRMINGHAM     CLOUDY    50  47  89 SE6       30.00R
CHATTANOOGA    CLOUDY    47  40  76 CALM      30.02S
CORINTH        CLOUDY    50  46  87 SE7       29.88F
DALTON         CLOUDY    46  43  87 CALM      30.03R
GADSDEN        CLOUDY    48  45  87 E6        29.99S
GOLDEN TRNGL   CLOUDY    52  48  87 SE10      29.90F
HALEYVILLE     CLOUDY    47  47 100 E7        29.94F FOG
JACKSON TN     CLOUDY    49  46  90 S9        29.86F
LEWISBURG      CLOUDY    48  44  86 SE5       29.94F
MEMPHIS        DRZL/FOG  49  47  93 S7        29.84S VSB 1
MURFREESBORO   CLOUDY    48  44  86 SE5       29.96S
NASHVILLE      CLOUDY    48  44  86 SE5       29.95F
OXFORD MS      CLOUDY    48  46  93 SE10G16   29.88S FOG
ROME           CLOUDY    46  44  93 E6        30.02R FOG
SAVANNAH       CLOUDY    48  48 100 S8        29.90S
TUPELO         CLOUDY    51  47  86 S9        29.89S
TUSCALOOSA     CLOUDY    51  50  96 E3        29.95F FOG
$$

...GULF COAST WEATHER...

CITY           SKY/WX    TMP DP  RH WIND       PRES   REMARKS
GULFPORT       LGT RAIN  58  57  97 E7        29.86F
PASCAGOULA     CLOUDY    58  57  97 E3        29.89R
MOBILE         CLOUDY    54  54 100 E7        29.90R FOG
GULF SHORES    CLOUDY    57  57 100 E5        29.90R
PENSACOLA      LGT RAIN  58  58 100 NE7       29.90  FOG
DESTIN         LGT RAIN  56  55  97 E9        29.93F
PANAMA CITY    FOG       57  57 100 NE6       29.94S VSB 1/2
APPALACHICOLA  FOG       63  60  90 NE7       29.93R VSB 1/4
$$




USA.gov is the U.S. government's official web portal to all federal, state and local government web resources and services.